[[{"header":{"parameterUnit":"m.s-1","parameterCategory":1,"la1":30.2991,"la2":30.254,"lo1":-89.0895,"lo2":-89.0444,"dy":0.0017,"dx":0.0017,"nx":28,"ny":28,"refTime":"2024-02-28T09:00:00:Z","depth":0,"parameterNumber":2,"parameterNumberName":"U-component_of_WINDS"},"data":[0,0,0,0,0,0,0,0,0,0,0,0,0,0,0,0,0,0,0,0,0,0,0,0,0,0,0,0,0,0,0,0,0,0,0,0,0,0,0,0,0,0,0,0,0,0,0,0,0,0,0,0,0,0,0,0,0,0,-4.3116,-4.3117,0,-4.3174,-4.3175,-4.3175,-4.3088,-4.3085,-4.3082,-4.3079,-4.3138,-4.3142,-4.3146,0,0,0,0,0,0,0,0,0,0,0,0,0,-4.2929,-4.2933,-4.3116,-4.3117,-4.3118,-4.3174,-4.3175,-4.3175,-4.3089,-4.3085,-4.3081,-4.3078,-4.3136,-4.3141,-4.3147,0,0,0,0,0,0,0,0,0,0,0,0,0,-4.3001,-4.2934,-4.3116,-4.3081,-4.3078,-4.3174,-4.3175,-4.3176,-4.3089,-4.3085,-4.308,-4.3076,-4.3135,-4.3141,-4.3147,-4.3279,0,0,-4.3168,-4.317,0,0,0,0,0,0,0,0,-4.2997,-4.3008,-4.3085,-4.3084,-4.3081,-4.3119,-4.313,-4.321,-4.3091,-4.3085,-4.3079,-4.3074,-4.3135,-4.3141,-4.3162,-4.3282,-4.3285,-4.3168,-4.3172,-4.3175,-4.3177,0,0,0,0,0,0,0,-4.2992,-4.3005,-4.3139,-4.3087,-4.3084,-4.3062,-4.3067,-4.3145,-4.3135,-4.3085,-4.3079,-4.3087,-4.3133,-4.3156,-4.3163,-4.3285,-4.3168,-4.3174,-4.3178,-4.318,-4.3515,-4.352,0,0,0,0,0,0,-4.2991,-4.3001,-4.3137,-4.3141,-4.3027,-4.3069,-4.3075,-4.3112,-4.3134,-4.3133,-4.3091,-4.3083,-4.3147,-4.3155,-4.3165,-4.332,-4.3175,-4.3181,-4.3185,-4.351,-4.3516,-4.3522,0,0,0,0,0,0,-4.2988,-4.3004,-4.3135,-4.3069,-4.3084,-4.3077,-4.3119,-4.3115,-4.3138,-4.3138,-4.3136,-4.3117,-4.3144,-4.3155,-4.3251,-4.3321,-4.3184,-4.319,-4.3505,-4.3512,-4.3519,-4.3633,0,0,0,0,0,0,-4.2983,-4.3003,-4.3054,-4.3071,-4.3088,-4.3222,-4.3123,-4.3119,-4.315,-4.314,-4.3162,-4.3161,-4.3141,-4.3242,-4.3258,-4.3328,-4.3195,-4.3498,-4.3508,-4.3517,-4.3623,-4.3644,-4.3661,0,0,0,0,0,-4.2976,-4.3084,-4.3057,-4.3074,-4.3151,-4.3226,-4.3235,-4.3211,-4.3156,-4.3206,-4.3206,-4.316,-4.3311,-4.3253,-4.327,-4.3343,-4.3494,-4.3505,-4.3516,-4.3615,-4.364,-4.3661,0,0,0,0,0,0,-4.3075,-4.3086,-4.3056,-4.3172,-4.3199,-4.3211,-4.3274,-4.3238,-4.328,-4.3269,-4.3236,-4.3242,-4.3345,-4.3353,-4.3288,-4.3471,-4.3393,-4.3408,-4.3462,-4.3486,-4.3505,-4.3501,-4.3201,0,0,0,0,0,-4.3111,-4.3171,-4.3176,-4.3278,-4.3293,-4.3282,-4.3313,-4.3292,-4.3317,-4.3328,-4.3335,-4.3362,-4.3415,-4.345,-4.3499,-4.3623,-4.3627,-4.3682,-4.3701,-4.3717,-4.373,-4.3796,-4.3821,-4.3558,-4.3558,-4.3558,0,0,-4.3185,-4.3197,-4.3237,-4.3299,-4.3317,-4.3379,-4.3292,-4.3361,-4.3407,-4.3339,-4.343,-4.3436,-4.3463,-4.3574,-4.3623,-4.3584,-4.3803,-4.3731,-4.3743,-4.3749,-4.381,-4.3835,-4.3857,-4.3566,-4.3564,-4.3563,0,0,-4.3351,-4.3367,-4.3454,-4.3474,-4.3502,-4.3493,-4.3514,-4.3531,-4.3533,-4.3624,-4.3573,-4.3627,-4.3719,-4.3741,-4.3764,-4.3937,-4.3896,-4.3954,-4.4054,-4.4118,-4.4139,-4.4157,-4.4219,-4.4242,-4.3967,-4.3968,-4.3968,0,-4.344,-4.3532,-4.3503,-4.3577,-4.3605,-4.3545,-4.3633,-4.3653,-4.3696,-4.3716,-4.3672,-4.3786,-4.38,-4.3915,-4.3957,-4.3978,-4.4,-4.3952,-4.4138,-4.4156,-4.4173,-4.4231,-4.4255,-4.3974,-4.3974,-4.3973,-4.3972,0,-4.364,-4.3705,-4.3771,-4.3814,-4.385,-4.393,-4.3912,-4.3951,-4.3927,-4.3922,-4.4015,-4.403,-4.408,-4.4106,-4.4082,-4.4217,-4.4192,-4.4143,-4.4065,-4.4205,-4.426,-4.4282,-4.3984,-4.3982,-4.398,-4.3978,0,0,-4.3872,-4.3897,-4.3922,-4.3941,-4.3967,-4.4016,-4.4093,-4.4143,-4.4177,-4.4208,-4.4272,-4.435,-4.4305,-4.4332,-4.4309,-4.4366,-4.4503,-4.431,-4.431,-4.4346,-4.4652,-4.4689,-4.4716,-4.4475,-4.4479,-4.4483,-4.465,0,-4.4039,-4.4173,-4.4148,-4.4278,-4.4337,-4.4281,-4.4347,-4.437,-4.4368,-4.4417,-4.4414,-4.4471,-4.4407,-4.4422,-4.4476,-4.4475,-4.4564,-4.4462,-4.4534,-4.4537,-4.453,-4.4744,-4.4784,-4.4941,-4.4671,-4.4675,-4.4677,0,-4.4252,-4.4291,-4.4427,-4.4443,-4.4467,-4.4528,-4.4571,-4.4619,-4.4643,-4.4637,-4.4666,-4.4633,-4.4709,-4.4628,-4.4731,-4.4663,-4.469,-4.4694,-4.4699,-4.4706,-4.4617,-4.4758,-4.4991,-4.5015,-4.4711,-4.4708,-4.4706,0,-4.4409,-4.4495,-4.4588,-4.4605,-4.4626,-4.467,-4.4681,-4.47,-4.4732,-4.4769,-4.4788,-4.4834,-4.4859,-4.4895,-4.4874,-4.4817,-4.4982,-4.4899,-4.4979,-4.4979,-4.5017,-4.5015,-4.5259,-4.5033,-4.5033,-4.5033,-4.5032,0,-4.4598,-4.4684,-4.4658,-4.4716,-4.4809,-4.4779,-4.4873,-4.4877,-4.4894,-4.4951,-4.4904,-4.4957,-4.4927,-4.4978,-4.4962,-4.505,-4.5061,-4.5058,-4.5053,-4.5063,-4.5064,-4.5082,-4.5071,-4.5039,-4.5037,-4.5036,-4.5035,0,-4.479,-4.4776,-4.4873,-4.4885,-4.489,-4.4959,-4.4968,-4.5021,-4.5014,-4.5086,-4.5101,-4.5091,-4.5148,-4.5131,-4.5193,-4.5182,-4.5294,-4.5274,-4.5286,-4.5282,-4.5363,-4.5356,-4.5627,-4.5661,-4.5413,-4.5416,-4.5418,0,-4.4912,-4.4977,-4.4995,-4.503,-4.5044,-4.51,-4.5132,-4.5104,-4.5139,-4.517,-4.5219,-4.5272,-4.5314,-4.5408,-4.5406,-4.5452,-4.5434,-4.5526,-4.5441,-4.5449,-4.5436,-4.5433,-4.5439,-4.5544,-4.5546,-4.5549,-4.5551,0,-4.5131,-4.5121,-4.5169,-4.5214,-4.5253,-4.5287,-4.5317,-4.5348,-4.5322,-4.5363,-4.5421,-4.5453,-4.5516,-4.5569,-4.5612,-4.5621,-4.5582,-4.5577,-4.5598,-4.561,-4.5614,-4.5613,-4.5333,-4.5571,-4.5569,-4.5568,-4.5567,-4.5566,-4.5292,-4.5347,-4.5369,-4.5423,-4.5442,-4.5471,-4.5521,-4.5521,-4.5569,-4.5618,-4.5598,-4.5666,-4.5686,-4.5739,-4.5755,-4.5806,-4.5771,-4.5801,-4.5809,-4.5817,-4.5828,-4.5605,-4.5813,-4.5813,-4.5812,-4.5812,-4.5811,0,-4.5509,-4.552,-4.557,-4.5614,-4.5656,-4.5615,-4.5645,-4.5684,-4.5743,-4.5766,-4.5808,-4.5874,-4.5925,-4.5927,-4.5974,-4.6015,-4.5998,-4.6028,-4.6026,-4.6028,-4.5856,-4.5834,-4.6041,-4.6041,-4.6041,-4.6041,-4.6041,-4.6041,-4.5628,-4.5718,-4.571,-4.5809,-4.5819,-4.5884,-4.5905,-4.5931,-4.5949,-4.6026,-4.6068,-4.6069,-4.6083,-4.6131,-4.6175,-4.6174,-4.6194,-4.6231,-4.6224,-4.6063,-4.6041,-4.6019,-4.5997,-4.6236,-4.6236,-4.6391,-4.6393,-4.6394]},{"header":{"parameterUnit":"m.s-1","parameterCategory":1,"la1":30.2991,"la2":30.254,"lo1":-89.0895,"lo2":-89.0444,"dy":0.0017,"dx":0.0017,"nx":28,"ny":28,"refTime":"2024-02-28T09:00:00:Z","depth":0,"parameterNumber":3,"parameterNumberName":"V-component_of_WINDS"},"data":[0,0,0,0,0,0,0,0,0,0,0,0,0,0,0,0,0,0,0,0,0,0,0,0,0,0,0,0,0,0,0,0,0,0,0,0,0,0,0,0,0,0,0,0,0,0,0,0,0,0,0,0,0,0,0,0,0,0,-9.2695,-9.2696,0,-9.2774,-9.2775,-9.2776,-9.2667,-9.2663,-9.2659,-9.2655,-9.273,-9.2736,-9.2741,0,0,0,0,0,0,0,0,0,0,0,0,0,-9.2442,-9.2448,-9.2695,-9.2696,-9.2697,-9.2774,-9.2775,-9.2776,-9.2668,-9.2663,-9.2658,-9.2654,-9.2728,-9.2735,-9.2742,0,0,0,0,0,0,0,0,0,0,0,0,0,-9.254,-9.2449,-9.2695,-9.2652,-9.2649,-9.2774,-9.2775,-9.2776,-9.2669,-9.2663,-9.2657,-9.2651,-9.2726,-9.2734,-9.2743,-9.2911,0,0,-9.2768,-9.2772,0,0,0,0,0,0,0,0,-9.2534,-9.2549,-9.2657,-9.2655,-9.2652,-9.2705,-9.2713,-9.2821,-9.267,-9.2661,-9.2655,-9.2649,-9.2726,-9.2734,-9.2761,-9.2914,-9.2917,-9.2769,-9.2774,-9.2778,-9.278,0,0,0,0,0,0,0,-9.2528,-9.2545,-9.2726,-9.2659,-9.2656,-9.2627,-9.2634,-9.2733,-9.2725,-9.2661,-9.2654,-9.2665,-9.2723,-9.2754,-9.2762,-9.2919,-9.2769,-9.2776,-9.2781,-9.2785,-9.3213,-9.3219,0,0,0,0,0,0,-9.2527,-9.254,-9.2723,-9.2728,-9.2578,-9.2636,-9.2644,-9.2694,-9.2724,-9.2723,-9.267,-9.266,-9.2742,-9.2753,-9.2765,-9.2964,-9.2778,-9.2785,-9.279,-9.3207,-9.3215,-9.3221,0,0,0,0,0,0,-9.2522,-9.2544,-9.272,-9.2632,-9.2652,-9.2647,-9.2703,-9.2698,-9.2728,-9.273,-9.2727,-9.2703,-9.2738,-9.2753,-9.2876,-9.2965,-9.2789,-9.2797,-9.3199,-9.3209,-9.3218,-9.3364,0,0,0,0,0,0,-9.2515,-9.2543,-9.2609,-9.2635,-9.2658,-9.2832,-9.2708,-9.2704,-9.2744,-9.2731,-9.276,-9.2759,-9.2735,-9.2864,-9.2884,-9.2973,-9.2803,-9.3191,-9.3204,-9.3215,-9.3351,-9.3377,-9.34,0,0,0,0,0,-9.2507,-9.2645,-9.2613,-9.2635,-9.274,-9.2838,-9.2851,-9.2821,-9.2752,-9.2816,-9.2817,-9.2758,-9.2952,-9.2877,-9.2899,-9.2992,-9.3186,-9.32,-9.3214,-9.334,-9.3372,-9.3399,0,0,0,0,0,0,-9.2627,-9.2648,-9.2612,-9.2763,-9.28,-9.2819,-9.29,-9.2856,-9.2911,-9.2897,-9.2856,-9.2863,-9.2995,-9.3005,-9.2922,-9.3157,-9.3057,-9.3076,-9.3145,-9.3176,-9.32,-9.3194,-9.281,0,0,0,0,0,-9.2672,-9.2752,-9.2764,-9.2897,-9.2917,-9.2906,-9.2947,-9.2922,-9.2957,-9.2971,-9.2981,-9.3016,-9.3084,-9.313,-9.3193,-9.3352,-9.3356,-9.3427,-9.3451,-9.3471,-9.3488,-9.3573,-9.3604,-9.3268,-9.3268,-9.3268,0,0,-9.2763,-9.2785,-9.2837,-9.2921,-9.2947,-9.3029,-9.292,-9.3011,-9.3071,-9.2984,-9.3102,-9.3111,-9.3146,-9.3289,-9.3351,-9.3301,-9.3582,-9.3489,-9.3505,-9.3511,-9.3591,-9.3623,-9.3651,-9.3278,-9.3276,-9.3275,0,0,-9.2973,-9.2998,-9.3111,-9.314,-9.3181,-9.3172,-9.32,-9.3226,-9.323,-9.3348,-9.3285,-9.3354,-9.3473,-9.3502,-9.3532,-9.3754,-9.3702,-9.3775,-9.3902,-9.3985,-9.4012,-9.4035,-9.4114,-9.4143,-9.3792,-9.3793,-9.3793,0,-9.3082,-9.3206,-9.3174,-9.3271,-9.331,-9.3238,-9.3351,-9.3379,-9.3438,-9.3465,-9.3409,-9.3558,-9.3577,-9.3724,-9.3779,-9.3805,-9.3834,-9.3772,-9.4011,-9.4034,-9.4055,-9.413,-9.416,-9.3801,-9.38,-9.3799,-9.3799,0,-9.3337,-9.3424,-9.351,-9.3572,-9.362,-9.3725,-9.3707,-9.3759,-9.373,-9.3727,-9.3847,-9.3868,-9.3934,-9.3967,-9.3938,-9.4111,-9.4079,-9.4018,-9.3916,-9.4096,-9.4166,-9.4195,-9.3814,-9.3811,-9.3808,-9.3806,0,0,-9.3625,-9.3669,-9.3702,-9.3729,-9.3769,-9.3835,-9.3935,-9.4003,-9.4048,-9.4091,-9.4174,-9.4277,-9.4221,-9.4255,-9.4228,-9.4301,-9.4476,-9.423,-9.423,-9.4276,-9.4668,-9.4715,-9.4749,-9.4442,-9.4447,-9.4451,-9.4665,0,-9.3835,-9.4013,-9.3988,-9.4158,-9.4237,-9.4171,-9.4258,-9.4291,-9.4292,-9.4357,-9.4355,-9.443,-9.435,-9.437,-9.444,-9.4441,-9.4555,-9.4424,-9.4517,-9.4521,-9.4511,-9.4785,-9.4835,-9.5036,-9.4693,-9.4697,-9.47,0,-9.4104,-9.4161,-9.434,-9.4369,-9.4401,-9.4481,-9.4541,-9.4605,-9.4641,-9.4635,-9.4675,-9.4635,-9.4734,-9.4632,-9.4767,-9.4679,-9.4715,-9.4721,-9.4728,-9.4736,-9.4622,-9.4801,-9.5099,-9.513,-9.4743,-9.474,-9.4737,0,-9.4297,-9.4417,-9.454,-9.4565,-9.4602,-9.466,-9.4677,-9.4707,-9.475,-9.4801,-9.4828,-9.489,-9.4924,-9.4971,-9.4949,-9.4876,-9.5088,-9.4983,-9.5085,-9.5086,-9.5133,-9.5131,-9.5442,-9.5156,-9.5156,-9.5155,-9.5155,0,-9.4535,-9.4647,-9.4627,-9.4703,-9.4826,-9.4795,-9.4917,-9.4926,-9.4954,-9.5028,-9.4973,-9.5044,-9.5009,-9.5077,-9.5059,-9.5174,-9.5189,-9.5187,-9.5181,-9.5193,-9.5193,-9.5216,-9.5201,-9.5163,-9.5162,-9.516,-9.5159,0,-9.4771,-9.4762,-9.4892,-9.4917,-9.4926,-9.5016,-9.5036,-9.5106,-9.5102,-9.5197,-9.5218,-9.5211,-9.5288,-9.527,-9.5354,-9.5342,-9.5486,-9.5462,-9.5476,-9.547,-9.5573,-9.5564,-9.5911,-9.5954,-9.564,-9.5643,-9.5646,0,-9.4924,-9.5009,-9.5045,-9.5092,-9.5115,-9.5192,-9.5236,-9.5208,-9.5256,-9.5304,-9.5368,-9.544,-9.5497,-9.5623,-9.5624,-9.5687,-9.5665,-9.5782,-9.5673,-9.5683,-9.5667,-9.5662,-9.5671,-9.5803,-9.5807,-9.581,-9.5812,0,-9.5196,-9.5188,-9.5255,-9.5322,-9.5376,-9.5426,-9.547,-9.5511,-9.5487,-9.5543,-9.5623,-9.5667,-9.5753,-9.5826,-9.5885,-9.5899,-9.5852,-9.5846,-9.5873,-9.5886,-9.589,-9.589,-9.5535,-9.5838,-9.5836,-9.5834,-9.5832,-9.5831,-9.5395,-9.5469,-9.5506,-9.5582,-9.5613,-9.5656,-9.5724,-9.573,-9.5796,-9.5867,-9.5845,-9.5936,-9.5969,-9.6044,-9.6066,-9.6135,-9.6091,-9.613,-9.614,-9.615,-9.6163,-9.588,-9.6145,-9.6145,-9.6144,-9.6143,-9.6143,0,-9.5665,-9.5687,-9.5757,-9.5823,-9.5883,-9.5835,-9.5882,-9.5934,-9.6016,-9.6052,-9.611,-9.6201,-9.6272,-9.6279,-9.6345,-9.6399,-9.6379,-9.6417,-9.6413,-9.6417,-9.6199,-9.6169,-9.6432,-9.6432,-9.6432,-9.6432,-9.6432,-9.6432,-9.5813,-9.5935,-9.5931,-9.6067,-9.6086,-9.6177,-9.6208,-9.6247,-9.6276,-9.6381,-9.6441,-9.6446,-9.647,-9.6537,-9.6599,-9.6599,-9.6626,-9.6673,-9.6665,-9.6461,-9.6432,-9.6405,-9.6377,-9.6679,-9.668,-9.6878,-9.6879,-9.6881]}]]